Peoria, IL

11:06 PM CDT on July 27, 2017 (GMT -0500)
Greater Peoria Regional

Weather History for KPIA - July, 2013

Change the Weather History Date:

Friday, July 19, 2013

  Actual Average Record
Temperature  
Mean Temperature 86 °F 76 °F  
Max Temperature 97 °F 86 °F 103 °F (1930)
Min Temperature 75 °F 66 °F 47 °F (1909)
Degree Days  
Heating Degree Days 0 0  
Month to date heating degree days 0 0  
Since 1 June heating degree days 18 18  
Since 1 July heating degree days 0 0  
Cooling Degree Days 21 11  
Month to date cooling degree days 235 207  
Year to date cooling degree days 565 510  
Since 1 June cooling degree days 458 429  
Growing Degree Days 36 (Base 50)    
Moisture  
Dew Point 70 °F    
Average Humidity 63    
Maximum Humidity 87    
Minimum Humidity 38    
Precipitation  
Precipitation 0.00 in 0.12 in 2.19 in (1889)
Month to date precipitation 0.39 2.41  
Year to date precipitation 30.10 20.27  
Snow  
Snow 0.00 in 0.00 in 0.00 in ()
Month to date snowfall 0.0 0.0  
Since 1 June snowfall 0.0 0.0  
Since 1 July snowfall 0.0 0.0  
Snow Depth 0.00 in    
Sea Level Pressure  
Sea Level Pressure 29.89 in    
Wind  
Wind Speed 10 mph (SW)    
Max Wind Speed 22 mph    
Max Gust Speed 26 mph    
Visibility 9 miles    
Events      
T = Trace of Precipitation, MM = Missing Value Source: NWS Daily Summary

Daily Weather History Graph

Daily Weather History Graph

Search for Another Location

Airport or City:

Trip Planner

Search our weather history database for the weather conditions in past years. The results will help you decide how hot, cold, wet, or windy it might be!

Date:

Astronomy

Jul. 19, 2013 Rise Set
Actual Time 5:44 AM CDT 8:25 PM CDT
Civil Twilight 5:12 AM CDT 8:57 PM CDT
Nautical Twilight 4:32 AM CDT 9:37 PM CDT
Astronomical Twilight 3:46 AM CDT 10:22 PM CDT
Moon 5:28 PM CDT (7/19) 2:25 AM CDT (7/19)
Length of Visible Light 15h 45m
Length of Day
14h 41m
Waxing Gibbous, 87% of the Moon is Illuminated
Jul 19
Waxing Gibbous
Jul 22
Full
Jul 29
Last Quarter
Aug 6
New
Aug 14
First Quarter

Hourly Weather History & Observations

Time (CDT) Temp. Heat Index Dew Point Humidity Pressure Visibility Wind Dir Wind Speed Gust Speed Precip Events Conditions
12:54 AM 80.1 °F 83.6 °F 71.1 °F 74% 29.98 in 10.0 mi SSW 5.8 mph - N/A   Clear
1:54 AM 78.1 °F - 71.1 °F 79% 29.96 in 7.0 mi SW 5.8 mph - N/A   Clear
2:54 AM 78.1 °F - 71.1 °F 79% 29.95 in 7.0 mi SW 5.8 mph - N/A   Clear
3:54 AM 77.0 °F - 71.1 °F 82% 29.94 in 6.0 mi SSW 4.6 mph - N/A   Haze
4:54 AM 75.0 °F - 71.1 °F 87% 29.93 in 4.0 mi South 6.9 mph - N/A   Clear
5:54 AM 75.9 °F - 71.1 °F 85% 29.94 in 4.0 mi SSW 6.9 mph - N/A   Haze
6:54 AM 77.0 °F - 72.0 °F 84% 29.94 in 4.0 mi SSW 9.2 mph - N/A   Haze
7:54 AM 80.1 °F 83.8 °F 72.0 °F 76% 29.95 in 8.0 mi SW 11.5 mph - N/A   Clear
8:54 AM 84.9 °F 90.1 °F 71.1 °F 63% 29.95 in 10.0 mi SW 9.2 mph - N/A   Clear
9:54 AM 88.0 °F 93.8 °F 71.1 °F 57% 29.95 in 10.0 mi WSW 11.5 mph - N/A   Clear
10:54 AM 91.0 °F 97.6 °F 71.1 °F 52% 29.94 in 10.0 mi WSW 9.2 mph - N/A   Clear
11:54 AM 93.0 °F 100.1 °F 71.1 °F 49% 29.92 in 10.0 mi WSW 10.4 mph - N/A   Clear
12:54 PM 95.0 °F 100.7 °F 69.1 °F 43% 29.89 in 10.0 mi SW 16.1 mph 24.2 mph N/A   Clear
1:54 PM 95.0 °F 100.7 °F 69.1 °F 43% 29.88 in 10.0 mi WSW 18.4 mph 24.2 mph N/A   Partly Cloudy
2:54 PM 96.1 °F 101.6 °F 69.1 °F 41% 29.86 in 10.0 mi West 16.1 mph - N/A   Partly Cloudy
3:54 PM 96.1 °F 99.3 °F 66.0 °F 37% 29.84 in 10.0 mi WSW 17.3 mph 24.2 mph N/A   Clear
4:54 PM 95.0 °F 99.0 °F 66.9 °F 40% 29.83 in 10.0 mi WSW 12.7 mph - N/A   Partly Cloudy
5:54 PM 93.9 °F 97.0 °F 66.0 °F 40% 29.82 in 10.0 mi WSW 9.2 mph - N/A   Clear
6:54 PM 93.0 °F 95.9 °F 66.0 °F 41% 29.81 in 10.0 mi WSW 9.2 mph - N/A   Clear
7:54 PM 89.1 °F 92.9 °F 68.0 °F 50% 29.81 in 10.0 mi SW 8.1 mph - N/A   Clear
8:54 PM 84.0 °F 87.8 °F 69.1 °F 61% 29.81 in 10.0 mi SW 5.8 mph - N/A   Clear
9:54 PM 82.9 °F 87.0 °F 70.0 °F 65% 29.83 in 10.0 mi SW 5.8 mph - N/A   Clear
10:54 PM 82.0 °F 86.3 °F 71.1 °F 69% 29.83 in 10.0 mi SSW 6.9 mph - N/A   Clear
11:54 PM 81.0 °F 84.9 °F 71.1 °F 72% 29.83 in 10.0 mi SW 6.9 mph - N/A   Partly Cloudy